Погода в Шаки

Погода в Шаки : погода сейчас, прогноз погоды и архив. Всё, что Вы хотите узнать о погоде в Шаки!

Поиск расширенной информации на нашем сайте:

Другие новости

Новости СМИ2

Главная страница сайта

Новости сайта

02.10.2013

Напоминаем, что на нашем новом сайте вы можете получить высокодетализированные прогнозы погоды по пунктам России, СНГ и мира (включающие важные для авиации метеовеличины, такие как направление и скорость ветра, видимость, явления погоды, количество и форма облачности, нижняя и верхняя граница облачности), а также ознакомиться с разнообразными материалами по авиационной метеорологии и подборкой полезных ссылок на эту тему.

Сайт Метеоцентр.Азия посвящён разработке технологий оптимизации авиаметеорологического обслуживания, включая проектирование и перспективное создание нескольких автоматизированных авиаметеорологических систем:
- система выпуска высокодетальных прогностических карт явлений погоды для нижнего воздушного пространства по России и ближнему зарубежью;
- система верификации прогнозов TAF (выпускаемых синоптиками официальных АМСГ РФ и ближнего зарубежья) и AUTOTAF (выпускаемых сайтом Метеоцентр.Азия) - выявление ошибок, онлайн-сопоставление с фактической погодой METAR, автоматическое внесение коррективов в прогнозы при резком отклонении фактической погоды от прогноза, подсчёт оправдываемости прогнозов по элементам и в целом;
- система обработки, анализа и отображения авиаметеорологической информации для применения провайдерами метеорологической информации.

Рекомендуем: удобные сауны города екатеринбурга

Погода в Шаки - сегодня

Время (UTC), дата Ветер
(°,м/с) 
Видим.   Явления Облачность Т
(°С)
Тd
(°С)
f(%) Тe
(°С)
Pmin
(гПа)
dP
(гПа)
Po
(мм)
O2
(г/м3)
Тmin Tmax R s Состояние
почвы
15 21.01.17 360 (С) 20000 м    ясно 
+2.5 -2.7 69 +2  1023.3  1.6  709  283           
18 21.01.17 350 (С) 20000 м    ясно 
+0.2 -4.9 69 +1  1024.7  0.6  710  286    +5.5       
21 21.01.17 050 (СВ) 20000 м    ясно 
-0.7 -6.5 65 1025.5  0.5  710  288           
00 22.01.17 330 (СЗ) 20000 м    ясно 
-1.7 -6.9 68 -1  1025  -0.7  710  288           
03 22.01.17 270 (З) 20000 м    ясно 
-1.3 -7.2 64 -1  1023.7  -1.1  709  288           
06 22.01.17 060 (СВ) 20000 м    5/0 средняя 
[Ac und]
-0.5 -6.2 65 1023.4  -0.1  709  287           
09 22.01.17 350 (С) 20000 м    3/0 средняя, верхняя 
[Ac und|Ci fib]
+2.8 -6.9 49 +1  1023.1  0.6  709  284           
12 22.01.17 350 (С) 20000 м    3/0 средняя, верхняя 
[Ac und|Ci fib]
+4.8 -7.3 41 +3  1022.4  -0.1  709  281           
15 22.01.17 130 (ЮВ) 20000 м    5/0 средняя, верхняя 
[Ac und|Ci fib]
+2.4 -7.6 48 +3  1025.6  2.3  711  285           
18 22.01.17 170 (Ю) 20000 м    ясно 
+2.4 -6.7 51 +3  1027.7  712  285    +5.5       
21 22.01.17 180 (Ю) 10 км    9/9 600 м 
[Sc]
+1.5 -4.4 65 -1  1030.8  2.6  714  287           
00 23.01.17 250 (З) 10 км    9/9 600 м 
[Sc]
+0.6 -4 71 1031.7  0.6  715  288           
03 23.01.17 330 (СЗ) 10 км    9/9 600 м 
[Sc]
-1.9 -3.5 89 -3  1032.3  -0.2  715  290           
06 23.01.17 280 (З) 4000 м    10/10 300 м 
[Frnb]
-1.6 -3.2 89 -1  1034.7  2.4  716  291           
09 23.01.17 260 (З) 10 км    8/5 600 м средняя 
[Sc|Ac und]
+0.7 -2.9 77 1032.7  -1.2  716  288           
12 23.01.17 320 (СЗ) 20000 м    4/0 средняя 
[Ac und]
+3.8 -5 53 +1  1029.9  -1.7  714  284           
15 23.01.17 340 (С) 20000 м    ясно 
+1.6 -6.2 56 +2  1031.2  0.5  715  287           
18 23.01.17 070 (В) 20000 м    ясно 
-0.4 -7.7 58 1033  1.1  716  289    +4.3       
21 23.01.17 040 (СВ) 20000 м    ясно 
-0.8 -7 63 -2  1034.9  1.6  717  290           
00 24.01.17 030 (СВ) 20000 м    ясно 
-0.5 -3.8 78 1034.5  -0.3  716  290           
03 24.01.17 040 (СВ) 20000 м    ясно 
-1.7 -9.1 57 -3  1034.8  716  291           
06 24.01.17 050 (СВ) 20000 м    ясно 
-0.3 -8 56 1034.8  0.3  717  290           
09 24.01.17 290 (З) 20000 м    ясно 
+4.9 -5 49 +6  1032.4  -0.7  716  284           
12 24.01.17 290 (З) 20000 м    ясно 
+6.1 -3.9 49 +6  1029.8  -2.1  715  282           
15 24.01.17 080 (В) 20000 м    ясно 
+2.2 -4.9 59 +3  1029.6  -1.2  714  286           
Время (UTC), дата Ветер
(°,м/с) 
Видим.   Явления Облачность Т
(°С)
Тd
(°С)
f(%) Тe
(°С)
Pmin
(гПа)
dP
(гПа)
Po
(мм)
O2
(г/м3)
Тmin Tmax R s Состояние
почвы

Для получения пояснительной информации подведите курсор к названию столбца.

ПОГОДА в Шаки - архив

Всё, что Вы хотите узнать о погоде в Шаки - удобно и подробно!

Выберите нужную дату (начиная с 1 января 2015* года) и нажмите кнопку "Найти".
Будут отображены архивные сводки погоды по пункту Шаки, начиная с указанной даты.


Отображать данные в формате CSV (для использования в таблицах Excel)


Внимание! Наш архив погоды предназначен исключительно для личного некоммерческого использования в познавательных целях. Если Вам необходимы официальные справки о состоянии погоды (для производственных, юридических, коммерческих и т.п. целей), обращайтесь в органы Росгидромета.

*Примечание: данная дата относится к архиву по метеостанциям СССР (Россия, СНГ, Балтия).
Архив по метеостанциям Зарубежной Европы и Азии (кроме Китая) хранится 10 дней, по другим регионам земного шара (Китай, Африка, Америка, Австралия, Океания) - 1 день.

Шаки - район местоположения метеостанции


Название, широта, долгота, высота метеостанции:
Шаки 41.2°ш. 47.2°д. 641 м над ур. моря [Азербайджан]

Дополнительная информация

В oтличие oт бoльшинства пoгoдных сайтoв мы публикуем пoдрoбную метеoинфoрмацию в детальнoм прoфессиoнальнoм фoрмате.

Характеристики температуры и влажнoсти вoздуха измеряются на высoте 2 м в тени вдали oт зданий и деревьев.
Скoрoсть ветра измеряется на высoте 10 м (на урoвне рoста челoвека скoрoсть ветра ниже в 1.5-2 раза). Если метеoстанция нахoдится в гoрoде или в лесу, тo скoрoсть ветра занижена на 2-4 м/с пo сравнению с oткрытым местoм. Скoрoсть ветра над акватoриями крупных рек и oзёр, а также на вершинах хoлмoв на 2-5 м/с выше, чем в oбычных услoвиях.
Атмoсфернoе давление в разных тoчках местнoсти мoжет значительнo oтличаться oт давления на метеoстанции, в зависимoсти oт услoвий рельефа (при пoдъёме на 10 м давление пoнижается примернo на 1 мм рт.ст.).